Location: Temple Hill
(37.3073°N, 88.6303°W)
Time: 16:29:53
(UTC+00:00)

BREEZE-M DEB (TANK) - Pass Details

Date: 23 November 2020
Orbit: 296 x 20371 km, 49.3° (Epoch: 20 January)

Event Time Altitude Azimuth Distance (km) Brightness Sun altitude
Rises 23:27:58 0° 248° (WSW) 3,826 9.4 -9.8°
Reaches altitude 10° 23:31:46 10° 258° (WSW) 1,881 7.1 -10.5°
Maximum altitude 23:34:49 31° 324° (NW) 651 3.4 -11.1°
Enters shadow 23:36:23 14° 27° (NNE) 1,005 3.8 -11.4°
